Wind_Speed
41 43 45 46 49 50 51 52 51 51 52 52 52 53 54 55 56 56 56 56 56 56 57 58 58 60 61 62 62 63 63 63 62 58 56 54 52 51 51 50 48 47 45
43 45 47 49 51 53 52 51 51 52 52 52 53 53 54 54 54 54 54 55 56 57 58 59 60 61 61 60 59 58 56 55 53 50 48 46 44 44 43 42 41 40 39
46 48 51 52 53 52 52 52 52 52 51 52 52 53 53 53 53 53 54 56 57 58 59 60 59 58 57 55 52 50 48 47 45 42 40 39 38 37 37 36 35 34 32
50 51 52 53 52 52 53 52 52 51 51 51 52 51 51 52 52 54 56 57 58 58 58 57 56 53 50 47 44 43 41 40 38 36 34 32 31 31 31 29 28 27 25
51 52 53 53 53 53 53 51 50 50 50 50 50 50 50 52 53 55 56 57 57 56 54 52 50 47 44 42 40 38 37 34 31 29 26 25 25 24 23 21 21 20 19
50 50 52 55 55 53 50 47 47 48 48 48 48 49 51 53 54 55 55 55 54 53 50 46 44 42 40 39 37 34 31 28 26 23 21 19 19 17 16 15 14 14 14
49 52 55 56 53 48 46 46 46 46 46 47 48 50 52 53 53 53 53 51 50 47 44 42 40 39 37 34 31 27 24 21 18 15 14 14 11 10 9 9 8 9 11
51 54 55 52 47 44 43 44 44 44 46 47 49 50 51 51 51 50 48 47 45 42 40 38 35 33 30 27 22 19 16 13 10 9 8 7 6 5 4 4 6 7 9
54 54 49 44 41 41 41 42 43 45 47 48 49 49 48 48 47 45 43 41 39 38 36 33 30 26 23 18 14 11 9 6 4 4 3 2 1 1 1 2 3 5 6
49 44 41 39 39 39 40 42 44 46 47 47 47 46 45 43 41 39 37 36 34 33 31 28 23 18 14 10 7 4 2 1 1 1 2 3 3 3 3 2 2 3 4
39 37 37 37 38 39 41 43 45 46 46 45 44 43 40 38 35 33 32 31 29 26 24 19 14 9 5 3 2 3 4 5 5 5 6 6 5 4 4 2 1 0 2
34 34 35 36 38 40 42 43 44 44 43 42 40 37 34 32 30 29 28 26 23 20 16 12 7 4 4 6 7 7 7 7 7 8 8 7 6 5 5 3 3 3 3
31 33 35 37 40 41 42 43 43 42 39 37 34 32 30 28 26 25 24 22 19 15 10 7 5 7 9 9 9 10 10 9 9 9 8 7 7 7 6 6 7 7 8
30 33 36 38 40 41 42 42 40 37 34 30 28 27 25 24 22 20 19 19 16 10 7 6 8 11 12 12 12 11 10 9 9 9 8 8 8 9 9 9 10 11 12
32 35 37 39 41 41 40 38 35 30 26 24 23 22 21 19 17 16 15 13 10 6 6 8 10 12 12 12 12 11 10 9 9 9 9 10 10 11 11 13 14 15 15
33 35 38 39 40 38 36 32 27 23 21 19 19 19 17 15 13 13 11 8 6 6 8 10 12 13 13 12 12 11 11 10 10 10 11 11 12 13 14 15 17 17 18
34 36 37 37 36 33 29 25 21 18 17 17 16 15 13 11 11 10 8 7 7 8 10 12 13 13 12 12 12 11 10 10 11 11 12 13 14 16 17 17 18 19 19
34 34 34 32 29 26 22 19 17 16 15 14 14 12 10 9 9 8 8 8 8 9 12 13 13 13 13 12 11 11 11 11 11 13 14 15 17 18 18 19 19 20 20
31 31 29 26 23 20 18 16 15 14 13 13 11 10 8 7 7 7 8 9 9 11 13 13 13 13 13 12 12 12 12 12 13 14 16 18 19 19 19 19 19 20 20
28 27 24 21 19 17 16 16 15 14 12 12 10 9 7 6 7 7 9 10 11 12 13 13 13 13 12 12 12 12 13 13 15 17 18 19 19 19 19 19 19 18 18
25 23 20 18 17 17 17 16 15 13 12 11 9 7 6 6 8 9 11 12 13 13 13 13 13 12 12 12 12 12 13 15 17 18 19 20 20 20 19 19 18 18 18
24 21 19 17 16 17 17 16 15 13 12 10 8 7 8 9 10 11 13 14 14 14 13 13 12 11 11 11 12 13 14 16 18 19 19 20 20 20 19 18 17 17 17
24 21 19 17 17 17 17 17 15 14 12 11 9 9 10 11 12 13 14 15 15 14 14 13 12 11 11 11 12 14 15 17 18 19 20 20 20 19 18 17 16 16 15
25 23 21 19 18 17 17 17 16 14 13 12 11 11 12 13 14 15 15 16 16 15 14 13 13 12 12 12 13 14 16 17 19 19 20 20 19 17 16 15 15 14 14
27 25 23 21 19 18 18 18 17 15 14 14 13 13 14 15 16 17 17 17 16 15 14 14 13 13 13 13 13 14 16 17 18 18 19 18 17 16 15 14 13 13 12
30 28 26 24 22 21 20 20 19 17 17 16 16 16 16 17 18 18 18 18 17 16 15 14 14 13 13 14 14 15 16 16 16 16 17 16 15 14 13 12 12 11 11
Wind_Direction
290 294 297 298 300 301 303 303 302 302 302 302 301 300 299 298 297 297 296 296 295 295 295 294 294 293 293 292 291 291 289 288 287 286 284 282 279 276 274 273 272 270 268
292 295 297 298 299 301 302 303 302 302 302 301 300 299 299 298 298 297 297 297 297 297 296 296 296 296 295 294 293 292 291 289 289 287 285 282 279 276 274 273 272 270 268
295 295 297 297 299 300 302 303 301 301 301 300 300 300 299 299 299 299 299 299 299 299 299 299 299 298 296 295 294 292 291 291 290 288 285 282 279 276 273 273 272 270 266
295 295 296 297 297 299 300 299 300 301 301 301 301 301 300 301 301 301 301 302 302 302 302 301 300 299 297 295 294 293 293 293 292 290 287 282 278 275 274 272 269 266 262
294 295 295 294 295 296 297 297 299 301 301 302 302 302 302 303 304 304 304 304 304 304 304 302 301 299 298 296 295 295 294 293 293 291 287 283 279 276 274 270 267 262 256
293 293 292 292 292 293 296 299 300 301 302 302 303 304 305 306 306 306 307 307 307 306 305 303 302 300 299 298 296 295 294 292 291 289 286 283 280 278 272 267 260 252 246
288 288 288 288 290 294 299 300 301 302 303 305 306 307 307 308 309 309 309 309 308 307 306 305 303 302 300 298 297 295 293 292 290 288 285 283 281 275 266 258 251 242 241
283 286 287 289 294 300 301 302 303 304 306 308 309 309 310 311 312 311 310 309 309 309 309 307 305 304 302 300 297 295 294 291 287 285 285 283 279 269 261 250 242 239 240
282 284 288 294 300 302 302 304 306 308 309 310 310 311 313 313 313 312 311 311 312 312 312 311 309 306 303 299 296 294 293 286 279 278 284 280 269 223 219 218 227 231 239
282 289 296 300 302 304 306 308 310 311 311 312 312 314 314 314 313 313 314 315 316 316 316 315 313 309 306 304 302 298 288 177 130 89 98 106 110 121 139 161 195 218 245
290 298 301 304 306 309 310 311 312 312 313 313 314 315 316 316 317 318 319 320 321 321 321 322 322 323 326 345 53 97 106 107 97 97 100 100 102 109 115 115 122 51 309
299 302 305 308 310 311 312 312 313 314 315 316 317 318 319 321 322 323 323 324 327 329 332 336 348 22 67 89 96 97 101 98 99 101 99 98 96 98 97 88 82 64 45
305 308 311 312 313 313 313 314 315 316 317 318 319 321 323 325 325 326 327 330 335 340 348 8 51 82 93 94 93 97 98 98 101 102 98 93 90 90 85 86 86 82 80
312 314 315 315 315 315 315 315 316 317 319 320 322 324 326 327 328 330 331 334 341 353 20 63 88 96 97 96 96 97 95 96 99 100 97 92 91 87 87 92 91 91 88
318 318 318 317 317 317 317 319 319 320 321 322 325 327 329 331 333 335 336 342 353 21 68 93 100 101 100 98 96 94 92 94 98 97 96 95 92 91 96 96 95 94 90
321 321 320 320 319 320 321 322 323 324 325 326 328 330 333 336 341 346 350 4 29 73 96 105 107 105 102 99 96 92 91 93 95 96 98 99 99 101 104 102 100 97 91
325 324 323 323 324 325 327 329 330 331 331 331 332 336 340 345 352 0 13 35 66 93 108 112 112 109 104 100 96 92 91 93 97 100 102 105 107 109 109 106 103 99 93
328 328 329 330 332 334 336 337 338 337 338 339 340 344 350 357 4 16 35 55 79 102 115 116 115 111 105 99 93 90 93 97 103 108 110 113 114 114 112 110 107 101 96
335 336 337 339 342 346 348 348 348 347 347 349 353 359 4 11 20 38 52 68 90 110 119 119 115 111 104 96 89 89 94 100 108 114 116 119 119 117 115 114 111 106 102
343 345 347 350 354 358 360 360 359 359 359 1 5 12 22 36 50 61 67 80 97 114 121 120 116 110 103 95 90 90 96 103 112 118 121 123 122 121 118 116 113 110 107
353 355 357 1 5 7 7 7 7 8 10 11 17 31 52 66 72 77 80 87 100 113 120 119 115 110 102 94 90 90 97 107 116 121 124 124 124 124 122 117 113 110 108
3 5 8 10 11 12 12 13 14 16 20 27 40 60 74 82 86 87 87 91 101 110 116 117 113 108 102 96 91 92 101 112 119 123 125 126 127 127 124 118 114 110 107
13 15 16 17 17 17 17 19 22 27 34 44 62 78 88 90 91 92 92 94 100 107 111 112 109 106 104 100 97 98 104 115 122 124 126 127 127 127 125 119 115 111 107
22 23 23 23 23 24 24 26 30 38 45 55 71 85 94 96 96 95 95 96 98 103 106 105 104 103 103 102 102 103 107 114 122 125 125 127 127 127 124 119 115 112 109
29 30 30 31 32 33 33 35 40 48 54 62 75 89 98 100 99 97 96 97 97 99 101 101 100 100 102 103 103 106 110 115 119 123 125 126 126 126 125 121 116 112 109
35 35 36 38 39 40 41 43 48 55 61 67 80 91 97 100 99 97 96 96 96 97 98 97 97 98 101 103 104 107 111 115 118 121 123 125 125 125 125 123 120 117 114
Height
5759 5755 5750 5746 5741 5735 5729 5724 5718 5712 5705 5699 5692 5686 5680 5673 5666 5659 5651 5644 5638 5632 5625 5619 5612 5605 5599 5591 5585 5578 5572 5565 5561 5558 5552 5548 5544 5542 5540 5539 5540 5540 5541
5748 5744 5739 5734 5729 5723 5717 5711 5705 5699 5692 5686 5680 5673 5666 5659 5652 5645 5638 5631 5624 5617 5610 5603 5596 5588 5581 5574 5567 5560 5554 5548 5543 5540 5536 5532 5529 5527 5526 5526 5526 5526 5527
5737 5732 5727 5722 5716 5711 5705 5699 5693 5687 5680 5674 5667 5660 5653 5646 5639 5632 5624 5617 5609 5602 5594 5587 5579 5571 5564 5557 5551 5545 5539 5534 5529 5526 5523 5519 5517 5515 5514 5514 5514 5514 5515
5725 5720 5715 5709 5704 5698 5693 5687 5681 5675 5668 5662 5654 5647 5640 5633 5626 5618 5610 5602 5595 5587 5578 5570 5563 5555 5549 5543 5537 5532 5527 5522 5518 5514 5512 5509 5507 5505 5505 5505 5505 5505 5507
5713 5707 5702 5697 5691 5686 5680 5674 5668 5662 5656 5649 5642 5634 5627 5619 5612 5604 5596 5588 5580 5572 5563 5555 5548 5541 5536 5530 5526 5521 5516 5512 5509 5505 5503 5501 5499 5498 5498 5498 5498 5499 5500
5700 5695 5689 5684 5679 5673 5668 5662 5656 5650 5643 5636 5629 5621 5614 5606 5598 5590 5581 5573 5565 5557 5550 5542 5535 5529 5524 5519 5514 5510 5507 5504 5501 5499 5497 5495 5494 5493 5493 5493 5494 5495 5497
5688 5683 5678 5672 5667 5661 5656 5651 5644 5638 5631 5624 5616 5608 5600 5592 5585 5576 5568 5560 5552 5544 5537 5531 5524 5518 5513 5509 5505 5502 5499 5497 5495 5494 5492 5491 5491 5490 5490 5491 5492 5493 5495
5677 5672 5667 5661 5655 5650 5645 5639 5632 5626 5619 5611 5604 5596 5587 5579 5572 5564 5556 5548 5540 5533 5527 5520 5514 5509 5504 5500 5497 5495 5494 5493 5492 5491 5490 5489 5489 5489 5489 5490 5491 5492 5493
5667 5661 5656 5650 5644 5639 5634 5627 5621 5614 5606 5599 5592 5584 5576 5568 5561 5553 5546 5538 5531 5524 5517 5511 5506 5501 5497 5494 5492 5491 5491 5490 5490 5489 5489 5489 5489 5489 5489 5490 5491 5491 5492
5656 5650 5645 5640 5635 5629 5622 5616 5609 5602 5595 5588 5581 5574 5566 5559 5552 5544 5537 5530 5523 5516 5510 5504 5499 5496 5493 5491 5490 5490 5489 5490 5490 5490 5490 5490 5490 5490 5490 5491 5491 5491 5491
5645 5641 5636 5630 5624 5618 5611 5605 5598 5591 5584 5578 5571 5565 5558 5550 5543 5536 5530 5523 5517 5511 5506 5500 5496 5493 5491 5490 5490 5490 5490 5491 5491 5491 5492 5492 5492 5492 5492 5492 5492 5492 5491
5637 5632 5627 5620 5614 5608 5601 5594 5588 5581 5574 5568 5561 5555 5549 5543 5536 5530 5524 5518 5513 5508 5503 5499 5496 5493 5492 5492 5492 5492 5493 5493 5494 5494 5495 5495 5495 5494 5494 5494 5493 5492 5491
5629 5624 5617 5611 5605 5598 5591 5585 5578 5572 5565 5559 5553 5548 5542 5537 5531 5526 5520 5515 5510 5506 5502 5499 5497 5495 5495 5495 5495 5496 5496 5497 5497 5498 5498 5498 5497 5497 5497 5496 5495 5495 5493
5621 5615 5609 5602 5595 5589 5582 5575 5569 5563 5557 5552 5547 5542 5537 5532 5527 5523 5518 5513 5509 5505 5503 5501 5499 5499 5499 5499 5499 5500 5500 5500 5501 5501 5501 5501 5501 5500 5500 5499 5499 5498 5497
5613 5607 5600 5593 5587 5580 5573 5567 5560 5555 5551 5547 5542 5538 5534 5529 5525 5520 5516 5512 5509 5506 5504 5503 5503 5503 5503 5503 5503 5504 5504 5504 5504 5504 5504 5504 5504 5504 5504 5504 5503 5503 5502
5606 5600 5593 5586 5578 5571 5565 5560 5554 5550 5546 5542 5538 5535 5530 5527 5523 5519 5516 5512 5509 5508 5507 5506 5506 5506 5507 5507 5507 5508 5508 5507 5508 5508 5508 5508 5509 5509 5509 5509 5509 5509 5508
5600 5593 5586 5578 5571 5564 5558 5553 5549 5546 5542 5539 5535 5532 5528 5525 5522 5519 5516 5513 5511 5510 5509 5510 5510 5510 5511 5511 5512 5512 5511 5511 5511 5512 5512 5513 5513 5514 5515 5515 5516 5515 5515
5595 5587 5579 5572 5565 5559 5554 5550 5546 5542 5539 5536 5533 5529 5527 5524 5522 5519 5517 5515 5513 5512 5513 5513 5514 5515 5515 5515 5515 5515 5515 5515 5515 5516 5517 5517 5518 5520 5521 5522 5522 5522 5523
5590 5582 5574 5568 5562 5557 5552 5548 5544 5541 5537 5534 5531 5529 5526 5524 5522 5520 5518 5517 5516 5515 5516 5517 5518 5519 5519 5519 5519 5519 5519 5519 5519 5520 5521 5522 5524 5525 5527 5528 5529 5530 5530
5586 5578 5572 5566 5561 5556 5551 5547 5543 5540 5536 5533 5530 5528 5526 5525 5523 5522 5520 5519 5518 5519 5520 5521 5522 5523 5523 5523 5523 5523 5523 5523 5523 5525 5526 5528 5529 5531 5533 5534 5535 5536 5537
5583 5577 5571 5565 5560 5556 5551 5547 5543 5539 5536 5533 5531 5529 5527 5526 5525 5524 5523 5522 5522 5523 5524 5525 5526 5527 5527 5527 5527 5527 5527 5527 5528 5530 5531 5533 5535 5537 5539 5540 5542 5543 5544
5582 5576 5570 5566 5561 5556 5552 5547 5543 5539 5536 5534 5531 5530 5529 5528 5527 5526 5526 5526 5526 5527 5528 5529 5530 5530 5531 5531 5531 5531 5531 5532 5533 5535 5536 5538 5540 5542 5544 5546 5547 5549 5550
5583 5576 5571 5566 5561 5557 5553 5548 5544 5540 5537 5535 5533 5532 5531 5531 5530 5530 5530 5530 5530 5531 5532 5533 5534 5534 5535 5535 5535 5536 5536 5537 5538 5540 5542 5544 5546 5548 5550 5551 5553 5554 5556
5584 5578 5572 5567 5563 5558 5554 5550 5546 5542 5539 5537 5535 5534 5534 5533 5533 5533 5534 5534 5534 5535 5536 5537 5538 5538 5539 5539 5540 5540 5541 5542 5543 5545 5547 5549 5551 5553 5555 5556 5558 5559 5561
5587 5581 5575 5570 5565 5561 5556 5552 5548 5545 5542 5540 5538 5537 5537 5537 5537 5538 5538 5539 5539 5540 5541 5541 5542 5542 5543 5544 5544 5545 5546 5547 5548 5550 5552 5554 5556 5557 5559 5561 5562 5564 5565
5591 5585 5579 5574 5569 5564 5560 5556 5552 5549 5546 5543 5542 5541 5541 5541 5542 5542 5543 5543 5544 5545 5545 5546 5546 5547 5547 5548 5549 5550 5551 5552 5554 5555 5557 5558 5560 5562 5564 5565 5566 5568 5569